EW9034 Weather Reports


time (UTC)temp
C
wind
direction
speed
KPH
gust
KPH
rain 1hr
cm
rain 24hr
cm
rain mn
cm
humidity
%
barometer
mb
20260906223035 15 59 4.8 14.5 0.00 1.50 1.50 91 1013.6
20260906221629 15 66 3.2 16.1 0.00 1.50 1.50 92 1013.6
20260906220044 15 63 9.7 16.1 0.00 1.50 1.50 91 1013.4
20260906214506 15 81 6.4 16.1 0.00 1.50 1.50 92 1013.7
20260906213104 15 70 9.7 19.3 0.00 1.50 1.50 93 1013.7
20260906211510 15 75 11.3 22.5 0.00 1.50 1.50 94 1013.9
20260906210052 15 53 12.9 19.3 0.00 1.50 1.50 94 1013.9
20260906204510 15 46 11.3 19.3 0.00 1.50 1.50 95 1014.1
20260906203054 14 48 14.5 22.5 0.00 1.50 1.50 96 1014.0
20260906201505 15 44 9.7 17.7 0.00 1.50 1.50 96 1014.0
20260906200052 14 40 11.3 20.9 0.00 1.50 1.50 96 1014.2
20260906194630 14 43 9.7 19.3 0.00 1.50 1.50 96 1014.4
20260906193052 14 32 11.3 19.3 0.05 1.50 1.50 96 1014.5
20260906191629 14 39 11.3 19.3 0.30 1.50 1.50 96 1014.4
20260906190050 14 16 6.4 14.5 0.61 1.50 1.50 96 1014.7
20260906184628 14 9 8.0 16.1 0.61 1.60 1.50 96 1015.1
20260906183108 14 38 8.0 16.1 0.58 1.55 1.42 96 1015.0
20260906181632 13 275 3.2 27.4 0.33 1.30 1.19 96 1015.6
20260906180114 13 18 1.6 12.9 0.03 0.99 0.89 96 1015.4
20260906174616 13 5 6.4 14.5 0.03 0.99 0.89 96 1015.1
20260906173030 13 360 11.3 17.7 0.00 0.97 0.86 96 1015.9
20260906171621 13 345 6.4 14.5 0.08 0.97 0.86 96 1016.4
20260906170042 13 355 1.6 12.9 0.25 0.97 0.86 96 1016.7
20260906164516 13 341 6.4 17.7 0.28 0.99 0.86 96 1016.3
20260906163110 13 355 8.0 22.5 0.28 0.99 0.86 96 1015.9
20260906161512 13 332 9.7 19.3 0.18 0.89 0.76 95 1016.7
20260906160058 13 5 1.6 6.4 0.03 0.71 0.61 96 1017.1
20260906154631 13 5 3.2 9.7 0.00 0.81 0.58 96 1016.9
20260906153039 13 5 1.6 9.7 0.00 0.81 0.58 96 1016.7
20260906151628 13 13 6.4 12.9 0.00 0.81 0.58 96 1016.3
20260906150055 13 13 8.0 14.5 0.00 0.81 0.58 96 1016.4
20260906144505 13 5 8.0 16.1 0.00 0.86 0.58 96 1016.4
20260906143056 13 5 9.7 19.3 0.00 0.86 0.58 96 1016.2
20260906141633 13 343 6.4 16.1 0.00 0.86 0.58 96 1016.5
20260906140055 13 322 11.3 16.1 0.00 0.86 0.58 96 1016.7
20260906134617 13 308 8.0 17.7 0.00 0.86 0.58 96 1016.8
20260906133040 13 101 1.6 6.4 0.00 0.86 0.58 96 1016.3
20260906131635 13 101 0.0 4.8 0.00 0.86 0.58 96 1016.5
20260906130059 13 101 3.2 17.7 0.00 0.86 0.58 96 1016.7
20260906124535 13 97 12.9 19.3 0.00 0.86 0.58 96 1016.3
20260906123125 13 83 8.0 17.7 0.00 0.86 0.58 95 1016.3
20260906121543 13 50 4.8 14.5 0.00 0.86 0.58 95 1016.5
20260906120003 12 40 4.8 12.9 0.00 0.86 0.58 96 1016.5
20260906114555 12 32 3.2 12.9 0.03 0.86 0.58 95 1016.8
20260906113008 12 25 8.0 14.5 0.03 0.86 0.58 95 1017.1
20260906111554 12 237 1.6 6.4 0.03 0.86 0.58 95 1017.5
20260906110004 12 237 1.6 4.8 0.03 0.86 0.58 95 1018.1
20260906104555 12 237 1.6 6.4 0.00 0.84 0.56 95 1018.3
20260906103017 12 237 0.0 3.2 0.00 0.84 0.56 95 1018.7
20260906101610 12 237 1.6 4.8 0.00 0.84 0.56 95 1018.5
20260906100038 12 237 1.6 4.8 0.00 0.84 0.56 95 1018.5
20260906094629 12 237 0.0 1.6 0.05 0.84 0.56 95 1018.9
20260906093049 12 237 0.0 4.8 0.05 0.84 0.56 95 1018.8
20260906091523 12 237 1.6 8.0 0.05 0.84 0.56 95 1018.5
20260906090106 13 236 0.0 4.8 0.10 0.84 0.56 94 1018.5
20260906084526 13 236 0.0 6.4 0.15 0.79 0.51 94 1018.9
20260906083116 13 235 8.0 11.3 0.18 0.79 0.51 94 1018.5
20260906081550 13 211 4.8 9.7 0.20 0.79 0.51 94 1018.8
20260906080014 13 207 1.6 4.8 0.23 0.71 0.46 94 1019.0
20260906074616 13 207 4.8 14.5 0.25 0.64 0.36 94 1020.3
20260906073027 13 267 4.8 14.5 0.33 0.61 0.33 94 1020.0
20260906071624 13 323 3.2 20.9 0.30 0.58 0.30 93 1019.2
20260906070042 13 264 9.7 12.9 0.23 0.51 0.23 93 1019.2
20260906064541 13 196 9.7 20.9 0.08 0.36 0.08 93 1020.7
20260906063123 12 180 9.7 19.3 0.00 0.28 0.00 93 1019.9
20260906061538 12 360 3.2 8.0 0.00 0.28 0.00 93 1018.1
20260906060008 12 360 6.4 17.7 0.00 0.28 0.00 92 1017.5
20260906054615 12 325 0.0 8.0 0.00 0.28 0.28 92 1018.9
20260906053037 12 331 1.6 6.4 0.00 0.28 0.28 92 1019.5
20260906051627 12 333 0.0 4.8 0.00 0.28 0.28 91 1019.6
20260906050046 12 333 0.0 4.8 0.00 0.28 0.28 91 1019.1
20260906044625 12 333 0.0 3.2 0.00 0.28 0.28 91 1018.9
20260906043045 12 333 0.0 3.2 0.00 0.28 0.28 91 1018.5
20260906041633 12 333 0.0 1.6 0.00 0.28 0.28 90 1018.4
20260906040048 12 334 0.0 4.8 0.00 0.28 0.28 90 1018.2
20260906034615 11 333 1.6 4.8 0.00 0.28 0.28 88 1018.2
20260906033045 11 333 0.0 0.0 0.00 0.28 0.28 87 1018.3
20260906031629 12 333 0.0 0.0 0.00 0.28 0.28 86 1018.1
20260906030044 12 333 0.0 0.0 0.00 0.28 0.28 85 1018.0
20260906024612 13 333 0.0 0.0 0.00 0.28 0.28 83 1017.9
20260906023035 14 333 0.0 0.0 0.00 0.28 0.28 80 1017.7
20260906021633 15 333 0.0 0.0 0.00 0.28 0.28 78 1017.4
20260906014538 18 333 0.0 0.0 0.00 0.28 0.28 71 1017.2
20260906013119 19 333 0.0 0.0 0.00 0.28 0.28 68 1017.2
20260906011550 20 333 3.2 4.8 0.00 0.28 0.28 67 1017.2
20260906010003 20 333 0.0 4.8 0.00 0.28 0.28 68 1017.3
20260906004551 20 333 1.6 6.4 0.00 0.28 0.28 67 1017.3
20260906003006 20 333 0.0 1.6 0.00 0.28 0.28 68 1017.3
20260906001557 20 333 1.6 9.7 0.00 0.28 0.28 70 1017.4
20260906000015 19 333 1.6 6.4 0.00 0.28 0.28 72 1017.3
20260905234611 18 333 3.2 9.7 0.00 0.28 0.28 73 1017.4
20260905233031 19 325 3.2 9.7 0.00 0.28 0.28 72 1017.3
20260905231630 19 336 4.8 17.7 0.00 0.28 0.28 74 1017.3
20260905230050 18 309 4.8 12.9 0.00 0.28 0.28 76 1017.1
20260905224624 18 323 6.4 14.5 0.00 0.28 0.28 73 1017.2